THOR ABLESTAR DEB, 19302

Orbit data source: Space-Track

THOR ABLESTAR DEB, 19302 is space debris in LEO originally from a launch on Thu, 29 Jun 1961 UTC launched from the Air Force Eastern Test Range (AFETR). Debris objects in space refer to the collection of defunct objects orbiting the Earth. Examples of debris include non-operational satellites, rocket bodies, and fragments generated from explosions, collisions, or faulty payload assembly.

Loading next visibility...
Identifier
19302, 1961-015MC
Orbit
LEO
Country
Flag of USUS
Related business
Manufacturer
Unknown
Mission
Spacecraft
Bus & Motor
Unknown
Mass
Unknown
Launch date (UTC)
1961-06-29 (65 years ago)
Launch vehicle
Unknown
Launch site
Air Force Eastern Test Range (AFETR)
Object type
Payload
Rocket body
Debris
Shape & HBR
Unknown shape, 0.1 m
Radar Cross Section
Medium (>0.1 m² and <1 m²)

Expand to show TLE details & history
Last TLE update: 4 days ago

TLE from 4 days ago
0 THOR ABLESTAR DEB
1 19302U 61015MC  26169.61560109  .00000466  00000-0  29726-3 0  9995
2 19302  66.8427 163.5984 0057158 329.9749  29.8067 14.11407883955058
Epoch: 2026-06-18T14:46Z
TLE epoch observation values (Epoch: 2026-06-18T14:46:27.934Z)
Latitude
0.00003°
Longitude
35.12564°
Altitude
820.841 km
Speed
7.462 km/s
True Right ascension
10h 54m 23s
True Declination
0° 00' 00"
Sunlit
Object was in daylight at epoch
Visualization orbit readout
Latitude
Unknown
Longitude
Unknown
Altitude
Unknown
Speed
Unknown
Apparent Right ascension
Unknown
Apparent Declination
Unknown
Sunlit
N/A
Visualization observer readout
Local Sidereal Time
02:14:07
Azimuth
Unknown
Elevation
Unknown
Doppler factor
Unknown
Orbital elements
Apogee altitude
894.262 km
Perigee altitude
811.599 km
Semi-major axis
7,231.068 km
Eccentricity
0.00572
Inclination
66.8427°
RAAN
163.5984°
Arg. of periapsis
329.9749°
True anomaly
30.1343°
Mean anomaly
29.8067°
Eccentric anomaly
29.9703°
Mean motion
3.52971 °/min
Orbital period
101.99 mins
BSTAR
0.00029726
Loading maneuver chart data...
Computing Atmospheric mass density...

Documentation

Showing up to 5 results
|